loading
|

STARLINK-32142, 60291

Orbit data source: Space-Track

STARLINK-32142, 60291 is a payload satellite owned by SpaceX/Seattle (US) in LEO that was launched on Sun, 28 Jul 2024 UTC via an FALCON 9 launch vehicle from the Air Force Eastern Test Range (AFETR). Payloads include a variety of satellites, spacecraft, and rockets equipped with specific instruments for various scientific and technological missions. These include communications satellites like Starlink; space stations such as the ISS; scientific satellites like the Hubble; Earth observation satellites from companies like Planet Labs, Umbra, and HawkEye 360; GPS; miniature CubeSats for education and research; and military/defense satellites.

Loading next visibility...
Loading greatness...
STARLINK-32142 details
Identifier
60291, 2024-132P
Orbit
LEO
Last TLE update8 hours ago
Origin
Flag of USSpaceX/Seattle (US)
ManufacturerSpaceX/Seattle
Mission statusOperational
MissionUnknown
Bus & MotorSTARLINK V2M, Unknown motor
Mass750 kg wet, ~700 kg dry
Launch date (UTC)
2024-07-28 (2 months ago)
Launch vehicle
FALCON 9
Launch site
Air Force Eastern Test Range (AFETR)
Object type
Payload
Rocket body
Debris
Radar Cross SectionLarge (>1 m²)

Expand to show TLE details & history

TLE from 8 hours ago
0 STARLINK-32142
1 60291U 24132P   24261.60267127  .00067088  00000-0  16694-2 0  9993
2 60291  53.1591  32.0226 0001299  88.1717 271.9437 15.39675597  9179
Epoch: 2024-09-17T14:27Z
Definitive object data (Epoch: 2024-09-17T14:27:50.797Z)
Latitude-0.00001°
Longitude178.04597°
Altitude447.941 km
Speed7.645 km/s
True Right ascension02h 08m 05s
True Declination0° 00' 00"
Sunlit
Object was in full shadow at TLE epoch
Predictive object data (real-time)
Latitude50.72363°
Longitude-69.22325°
Altitude452.066 km
Speed7.648 km/s
Apparent Right ascension06h 20m 41s
Apparent Declination10° 30' 41"
Sunlit
Object is in daylight
Predictive observer data (real-time)
Local Sidereal Time15:31:25
Azimuth312.493° NW
Elevation-26.139°
Doppler factor1
Orbital elements
Apogee448.212 km
Perigee446.439 km
Semi-major axis6,825.462 km
Eccentricity0.0001299
Inclination53.1591°
RAAN32.0226°
Arg. of periapsis88.1717°
True anomaly271.92882°
Mean anomaly271.9437°
Eccentric anomaly271.93626°
Mean motion3.84897 °/min
BSTAR0.0016694
Period93.53 mins
No data available

STARLINK-32142 Visibility forecast

Observer location: 39.9160978°, -105.1181434

STARLINK-32142 is not visible in the next 10 days
Span
Click to sort rows by Start time (UTC) header in descending order
Start Az.
Max El. time (UTC)
Max El. Az.
Max El.
End time (UTC)
End Az.